EWG7DN LIEO-EDDK

Flight info

Callsign EWG7DN
Flight time 1h 45m
Altitude 38000
Route OKIVA7K OKIVA P980 DIKEL DCT RATAP DCT MEGER DCT ERTEV DCT SRN DCT ABESI DCT LADOL T163 KOVAN/N0433F360 T844 UMDAS/N0363F240 T844 ASKIK T840 GULKO GULKO1F
Aircraft A320/M-SDE2E3FGIJ1RWXYZ/HB1

Departure

Time 2026-04-22 10:49
Airport Olbia Costa Smeralda Airport (LIEO)

Arrival

Time 2026-04-22 12:34
Airport Cologne Bonn Airport (EDDK)
Time Latitude Longitude Altitude Speed Heading
2026-04-22 09:53 40.90266 9.51708 35 ft 0 kts 326°
2026-04-22 10:42 40.90258 9.51715 35 ft 4 kts 323°
2026-04-22 10:43 40.90238 9.51738 33 ft 4 kts 304°
2026-04-22 10:43 40.90229 9.51768 32 ft 4 kts 251°
2026-04-22 10:43 40.90232 9.51777 35 ft 0 kts 235°
2026-04-22 10:45 40.90231 9.51776 32 ft 2 kts 235°
2026-04-22 10:45 40.90201 9.51720 35 ft 14 kts 235°
2026-04-22 10:45 40.90124 9.51575 35 ft 25 kts 235°
2026-04-22 10:45 40.90043 9.51483 33 ft 8 kts 154°
2026-04-22 10:46 40.89995 9.51517 34 ft 11 kts 159°
2026-04-22 10:46 40.89906 9.51451 32 ft 20 kts 235°
2026-04-22 10:46 40.89822 9.51266 34 ft 27 kts 234°
2026-04-22 10:46 40.89716 9.51066 36 ft 26 kts 232°
2026-04-22 10:47 40.89609 9.50872 36 ft 26 kts 235°
2026-04-22 10:47 40.89511 9.50684 36 ft 25 kts 238°
2026-04-22 10:47 40.89415 9.50502 36 ft 22 kts 231°
2026-04-22 10:47 40.89294 9.50464 35 ft 19 kts 137°
2026-04-22 10:48 40.89271 9.50623 30 ft 19 kts 63°
2026-04-22 10:48 40.89412 9.50901 28 ft 68 kts 55°
2026-04-22 10:48 40.89809 9.51640 26 ft 129 kts 56°
2026-04-22 10:48 40.90382 9.52754 373 ft 150 kts 56°
2026-04-22 10:49 40.90945 9.53888 1213 ft 148 kts 53°
2026-04-22 10:49 40.91582 9.55053 1767 ft 170 kts 51°
2026-04-22 10:49 40.92316 9.56401 2174 ft 190 kts 53°
2026-04-22 10:49 40.93115 9.57907 2539 ft 213 kts 53°
2026-04-22 10:50 40.94019 9.59607 2897 ft 239 kts 53°
2026-04-22 10:50 40.95007 9.61459 3627 ft 249 kts 53°
2026-04-22 10:50 40.96045 9.63349 4382 ft 262 kts 46°
2026-04-22 10:50 40.97557 9.64742 5065 ft 269 kts 16°
2026-04-22 10:51 40.99359 9.65212 5965 ft 268 kts 357°
2026-04-22 10:51 41.01223 9.65036 6923 ft 269 kts 349°
2026-04-22 10:51 41.03091 9.64678 7830 ft 273 kts 348°
2026-04-22 10:51 41.04982 9.64304 8736 ft 277 kts 348°
2026-04-22 10:52 41.06913 9.63917 9637 ft 281 kts 347°
2026-04-22 10:52 41.08850 9.63527 10351 ft 292 kts 347°
2026-04-22 10:52 41.10943 9.63103 10685 ft 314 kts 348°
2026-04-22 10:52 41.13141 9.62664 11349 ft 323 kts 348°
2026-04-22 10:53 41.15383 9.62223 12181 ft 326 kts 348°
2026-04-22 10:53 41.17622 9.61783 13014 ft 329 kts 348°
2026-04-22 10:53 41.19902 9.61334 13859 ft 332 kts 348°
2026-04-22 10:53 41.22202 9.60882 14583 ft 334 kts 348°
2026-04-22 10:54 41.24523 9.60427 15304 ft 337 kts 348°
2026-04-22 10:54 41.26826 9.59974 15988 ft 340 kts 348°
2026-04-22 10:54 41.29186 9.59505 16687 ft 343 kts 348°
2026-04-22 10:54 41.31568 9.59030 17400 ft 346 kts 348°
2026-04-22 10:55 41.33965 9.58551 18094 ft 350 kts 348°
2026-04-22 10:55 41.36355 9.58072 18720 ft 352 kts 347°
2026-04-22 10:55 41.38793 9.57584 19317 ft 355 kts 347°
2026-04-22 10:55 41.41253 9.57095 19923 ft 358 kts 347°
2026-04-22 10:56 41.43729 9.56601 20534 ft 360 kts 347°
2026-04-22 10:56 41.46189 9.56111 21126 ft 362 kts 347°
2026-04-22 10:56 41.48693 9.55609 21714 ft 365 kts 347°
2026-04-22 10:56 41.51215 9.55103 22288 ft 367 kts 347°
2026-04-22 10:57 41.53749 9.54593 22861 ft 369 kts 347°
2026-04-22 10:57 41.56302 9.54080 23424 ft 372 kts 347°
2026-04-22 10:57 41.58874 9.53562 23909 ft 374 kts 347°
2026-04-22 10:57 41.61430 9.53047 24375 ft 377 kts 347°
2026-04-22 10:58 41.64032 9.52525 24824 ft 379 kts 347°
2026-04-22 10:58 41.66651 9.51999 25273 ft 382 kts 346°
2026-04-22 10:58 41.69288 9.51467 25699 ft 384 kts 346°
2026-04-22 10:58 41.71945 9.50930 26146 ft 387 kts 346°
2026-04-22 10:59 41.74617 9.50396 26569 ft 389 kts 346°
2026-04-22 10:59 41.77310 9.49855 26994 ft 392 kts 346°
2026-04-22 10:59 41.80019 9.49306 27408 ft 394 kts 346°
2026-04-22 10:59 41.82708 9.48761 27814 ft 397 kts 346°
2026-04-22 11:00 41.85454 9.48207 28217 ft 400 kts 346°
2026-04-22 11:00 41.88221 9.47649 28613 ft 402 kts 346°
2026-04-22 11:00 41.91005 9.47086 28998 ft 405 kts 346°
2026-04-22 11:00 41.93804 9.46517 29381 ft 407 kts 346°
2026-04-22 11:01 41.96585 9.45951 29753 ft 410 kts 346°
2026-04-22 11:01 41.99423 9.45373 30127 ft 413 kts 346°
2026-04-22 11:01 42.02287 9.44786 30442 ft 415 kts 346°
2026-04-22 11:01 42.05113 9.44206 30752 ft 417 kts 346°
2026-04-22 11:02 42.08003 9.43614 31048 ft 419 kts 346°
2026-04-22 11:02 42.10896 9.43024 31350 ft 421 kts 346°
2026-04-22 11:02 42.13807 9.42433 31651 ft 423 kts 346°
2026-04-22 11:02 42.16720 9.41841 32029 ft 422 kts 346°
2026-04-22 11:03 42.19582 9.41262 32480 ft 420 kts 346°
2026-04-22 11:03 42.22472 9.40675 32909 ft 419 kts 346°
2026-04-22 11:03 42.25368 9.40133 33340 ft 419 kts 348°
2026-04-22 11:03 42.28277 9.39768 33788 ft 419 kts 350°
2026-04-22 11:04 42.31195 9.39532 34200 ft 419 kts 351°
2026-04-22 11:04 42.34087 9.39357 34539 ft 419 kts 351°
2026-04-22 11:04 42.37001 9.39190 34879 ft 418 kts 351°
2026-04-22 11:04 42.39907 9.39004 35216 ft 417 kts 351°
2026-04-22 11:05 42.42800 9.38791 35537 ft 415 kts 350°
2026-04-22 11:05 42.45646 9.38556 35846 ft 414 kts 350°
2026-04-22 11:05 42.48528 9.38300 36177 ft 414 kts 350°
2026-04-22 11:05 42.51397 9.38038 36483 ft 413 kts 349°
2026-04-22 11:06 42.54266 9.37778 36784 ft 412 kts 350°
2026-04-22 11:06 42.57127 9.37522 37093 ft 411 kts 350°
2026-04-22 11:06 42.59951 9.37274 37368 ft 411 kts 350°
2026-04-22 11:06 42.62805 9.37028 37613 ft 411 kts 350°
2026-04-22 11:07 42.65664 9.36784 37910 ft 410 kts 350°
2026-04-22 11:07 42.68513 9.36539 38069 ft 410 kts 350°
2026-04-22 11:07 42.71331 9.36293 38093 ft 409 kts 350°
2026-04-22 11:08 42.77013 9.35799 38094 ft 408 kts 350°
2026-04-22 11:08 42.82687 9.35303 38092 ft 408 kts 350°
2026-04-22 11:09 42.88329 9.34810 38088 ft 408 kts 350°
2026-04-22 11:09 42.93985 9.34322 38087 ft 408 kts 350°
2026-04-22 11:10 42.99664 9.33823 38082 ft 408 kts 350°
2026-04-22 11:10 43.05303 9.33331 38085 ft 408 kts 350°
2026-04-22 11:11 43.10984 9.32835 38091 ft 408 kts 350°
2026-04-22 11:11 43.16667 9.32331 38099 ft 408 kts 350°
2026-04-22 11:12 43.22312 9.31833 38094 ft 409 kts 350°
2026-04-22 11:12 43.28004 9.31332 38100 ft 409 kts 351°
2026-04-22 11:13 43.33689 9.30835 38102 ft 409 kts 351°
2026-04-22 11:13 43.39346 9.30334 38102 ft 410 kts 351°
2026-04-22 11:14 43.45040 9.29818 38115 ft 410 kts 351°
2026-04-22 11:14 43.50742 9.29298 38102 ft 410 kts 351°
2026-04-22 11:15 43.56399 9.28788 38107 ft 410 kts 351°
2026-04-22 11:15 43.62113 9.28275 38110 ft 411 kts 351°
2026-04-22 11:16 43.67831 9.27764 38111 ft 411 kts 351°
2026-04-22 11:16 43.73511 9.27247 38117 ft 411 kts 351°
2026-04-22 11:17 43.79216 9.26719 38123 ft 410 kts 351°
2026-04-22 11:17 43.84921 9.26196 38128 ft 410 kts 351°
2026-04-22 11:18 43.90593 9.25683 38133 ft 410 kts 351°
2026-04-22 11:18 43.96292 9.25165 38136 ft 410 kts 351°
2026-04-22 11:19 44.01970 9.24644 38135 ft 410 kts 351°
2026-04-22 11:19 44.07668 9.24117 38134 ft 409 kts 351°
2026-04-22 11:20 44.13329 9.23601 38133 ft 409 kts 351°
2026-04-22 11:20 44.19019 9.23078 38135 ft 408 kts 351°
2026-04-22 11:21 44.24663 9.22556 38135 ft 407 kts 351°
2026-04-22 11:21 44.30306 9.22038 38139 ft 407 kts 351°
2026-04-22 11:22 44.35965 9.21508 38140 ft 406 kts 351°
2026-04-22 11:22 44.41577 9.20983 38143 ft 405 kts 351°
2026-04-22 11:23 44.47206 9.20456 38143 ft 405 kts 351°
2026-04-22 11:23 44.52825 9.19938 38146 ft 404 kts 351°
2026-04-22 11:24 44.58438 9.19410 38142 ft 403 kts 351°
2026-04-22 11:24 44.64007 9.18893 38114 ft 403 kts 351°
2026-04-22 11:25 44.69595 9.18379 38156 ft 400 kts 351°
2026-04-22 11:25 44.75110 9.17856 38167 ft 399 kts 351°
2026-04-22 11:26 44.80644 9.17323 38172 ft 397 kts 351°
2026-04-22 11:26 44.86168 9.16798 38179 ft 396 kts 351°
2026-04-22 11:27 44.91640 9.16283 38181 ft 396 kts 351°
2026-04-22 11:27 44.97136 9.15760 38180 ft 395 kts 351°
2026-04-22 11:28 45.02632 9.15247 38181 ft 395 kts 351°
2026-04-22 11:28 45.08099 9.14727 38183 ft 395 kts 351°
2026-04-22 11:29 45.12708 9.14291 38178 ft 396 kts 351°
2026-04-22 11:29 45.18172 9.13776 38179 ft 396 kts 351°
2026-04-22 11:30 45.23672 9.13247 38188 ft 396 kts 351°
2026-04-22 11:30 45.29180 9.12720 38194 ft 396 kts 351°
2026-04-22 11:31 45.34087 9.12247 38192 ft 396 kts 351°
2026-04-22 11:31 45.39533 9.11725 38188 ft 397 kts 352°
2026-04-22 11:32 45.45044 9.11199 38168 ft 397 kts 352°
2026-04-22 11:32 45.50435 9.10677 38170 ft 398 kts 352°
2026-04-22 11:33 45.56035 9.10136 38178 ft 398 kts 352°
2026-04-22 11:33 45.61575 9.09597 38186 ft 399 kts 352°
2026-04-22 11:34 45.67085 9.09055 38190 ft 399 kts 352°
2026-04-22 11:34 45.72647 9.08515 38202 ft 400 kts 352°
2026-04-22 11:35 45.78168 9.07986 38188 ft 400 kts 352°
2026-04-22 11:35 45.83729 9.07440 38187 ft 400 kts 352°
2026-04-22 11:36 45.89291 9.06890 38182 ft 400 kts 352°
2026-04-22 11:36 45.94813 9.06351 38174 ft 400 kts 352°
2026-04-22 11:37 46.00381 9.05804 38176 ft 401 kts 352°
2026-04-22 11:37 46.05923 9.05265 38179 ft 401 kts 352°
2026-04-22 11:38 46.11505 9.04715 38163 ft 401 kts 352°
2026-04-22 11:38 46.19873 9.03987 38182 ft 402 kts 354°
2026-04-22 11:39 46.25451 9.03778 38185 ft 402 kts 355°
2026-04-22 11:39 46.31051 9.03607 38182 ft 402 kts 355°
2026-04-22 11:40 46.36609 9.03397 38164 ft 401 kts 355°
2026-04-22 11:40 46.42204 9.03150 38163 ft 402 kts 355°
2026-04-22 11:41 46.47806 9.02902 38161 ft 402 kts 355°
2026-04-22 11:41 46.53366 9.02660 38149 ft 402 kts 355°
2026-04-22 11:42 46.58972 9.02415 38152 ft 403 kts 355°
2026-04-22 11:42 46.64579 9.02166 38151 ft 402 kts 355°
2026-04-22 11:43 46.70144 9.01911 38153 ft 403 kts 355°
2026-04-22 11:43 46.75766 9.01668 38149 ft 403 kts 355°
2026-04-22 11:44 46.81372 9.01427 38145 ft 402 kts 356°
2026-04-22 11:44 46.86959 9.01180 38145 ft 403 kts 355°
2026-04-22 11:45 46.92583 9.00929 38152 ft 404 kts 355°
2026-04-22 11:45 46.98160 9.00684 38152 ft 403 kts 355°
2026-04-22 11:46 47.03770 9.00442 38153 ft 404 kts 355°
2026-04-22 11:46 47.09403 9.00198 38159 ft 404 kts 356°
2026-04-22 11:47 47.14613 8.99964 38158 ft 403 kts 355°
2026-04-22 11:47 47.20236 8.99705 38171 ft 403 kts 356°
2026-04-22 11:48 47.25858 8.99454 38182 ft 403 kts 356°
2026-04-22 11:48 47.31438 8.99207 38192 ft 404 kts 356°
2026-04-22 11:49 47.37076 8.98959 38194 ft 404 kts 356°
2026-04-22 11:49 47.42705 8.98703 38203 ft 405 kts 356°
2026-04-22 11:50 47.48306 8.98443 38207 ft 405 kts 356°
2026-04-22 11:50 47.53933 8.98191 38207 ft 404 kts 356°
2026-04-22 11:51 47.59575 8.97941 38213 ft 404 kts 356°
2026-04-22 11:51 47.65165 8.97693 38217 ft 404 kts 356°
2026-04-22 11:52 47.70791 8.97436 38226 ft 404 kts 356°
2026-04-22 11:52 47.76436 8.97172 38228 ft 404 kts 356°
2026-04-22 11:53 47.82031 8.96915 38227 ft 405 kts 356°
2026-04-22 11:53 47.87679 8.96659 38231 ft 405 kts 356°
2026-04-22 11:54 47.93282 8.96408 38236 ft 405 kts 356°
2026-04-22 11:54 47.98929 8.96151 37871 ft 405 kts 356°
2026-04-22 11:55 48.01746 8.96021 37549 ft 404 kts 356°
2026-04-22 11:55 48.04560 8.95843 37231 ft 404 kts 355°
2026-04-22 11:55 48.07367 8.95589 36907 ft 404 kts 354°
2026-04-22 11:55 48.10174 8.95291 36614 ft 404 kts 354°
2026-04-22 11:56 48.12945 8.94981 36312 ft 404 kts 354°
2026-04-22 11:56 48.15745 8.94665 36015 ft 404 kts 354°
2026-04-22 11:56 48.18556 8.94357 35727 ft 404 kts 354°
2026-04-22 11:56 48.21371 8.94067 35430 ft 404 kts 354°
2026-04-22 11:57 48.24182 8.93794 35142 ft 404 kts 354°
2026-04-22 11:57 48.26995 8.93531 34854 ft 404 kts 354°
2026-04-22 11:57 48.29798 8.93270 34577 ft 405 kts 354°
2026-04-22 11:57 48.32585 8.93010 34304 ft 405 kts 354°
2026-04-22 11:58 48.35409 8.92745 33977 ft 405 kts 354°
2026-04-22 11:58 48.38225 8.92477 33650 ft 406 kts 354°
2026-04-22 11:58 48.41054 8.92201 33331 ft 408 kts 354°
2026-04-22 11:58 48.43899 8.91922 33006 ft 409 kts 354°
2026-04-22 11:59 48.46708 8.91646 32694 ft 410 kts 355°
2026-04-22 11:59 48.49567 8.91364 32385 ft 414 kts 355°
2026-04-22 11:59 48.52469 8.91079 32220 ft 420 kts 355°
2026-04-22 11:59 48.55405 8.90791 32261 ft 423 kts 355°
2026-04-22 12:00 48.61309 8.90215 32263 ft 425 kts 355°
2026-04-22 12:00 48.67178 8.89641 32264 ft 425 kts 355°
2026-04-22 12:01 48.73099 8.89056 32267 ft 425 kts 355°
2026-04-22 12:01 48.78983 8.88481 32265 ft 426 kts 355°
2026-04-22 12:02 48.84906 8.87896 32266 ft 426 kts 355°
2026-04-22 12:02 48.90843 8.87303 32197 ft 428 kts 355°
2026-04-22 12:03 48.93825 8.87007 31933 ft 428 kts 355°
2026-04-22 12:03 48.96763 8.86715 31590 ft 429 kts 356°
2026-04-22 12:03 48.99755 8.86415 31079 ft 429 kts 356°
2026-04-22 12:03 49.02750 8.86115 30585 ft 430 kts 356°
2026-04-22 12:04 49.05711 8.85815 30043 ft 432 kts 356°
2026-04-22 12:04 49.08716 8.85514 29557 ft 433 kts 356°
2026-04-22 12:04 49.11737 8.85214 29065 ft 434 kts 356°
2026-04-22 12:04 49.14757 8.84914 28594 ft 436 kts 356°
2026-04-22 12:05 49.17797 8.84612 28114 ft 437 kts 356°
2026-04-22 12:05 49.20843 8.84313 27615 ft 439 kts 357°
2026-04-22 12:05 49.23864 8.84013 27109 ft 440 kts 356°
2026-04-22 12:05 49.26925 8.83703 26598 ft 441 kts 357°
2026-04-22 12:06 49.30000 8.83391 26070 ft 443 kts 357°
2026-04-22 12:06 49.33087 8.83075 25511 ft 444 kts 357°
2026-04-22 12:06 49.36183 8.82757 24948 ft 446 kts 357°
2026-04-22 12:06 49.39248 8.82374 24470 ft 448 kts 352°
2026-04-22 12:07 49.42286 8.81235 24248 ft 451 kts 346°
2026-04-22 12:07 49.45307 8.79937 23782 ft 450 kts 346°
2026-04-22 12:07 49.48321 8.78621 23530 ft 449 kts 346°
2026-04-22 12:07 49.51329 8.77296 23267 ft 448 kts 346°
2026-04-22 12:08 49.54317 8.75973 23004 ft 446 kts 346°
2026-04-22 12:08 49.57297 8.74654 22739 ft 445 kts 346°
2026-04-22 12:08 49.60279 8.73338 22481 ft 443 kts 346°
2026-04-22 12:08 49.63210 8.72049 22224 ft 442 kts 346°
2026-04-22 12:09 49.66168 8.70751 21963 ft 441 kts 346°
2026-04-22 12:09 49.69110 8.69453 21700 ft 439 kts 346°
2026-04-22 12:09 49.72058 8.68151 21450 ft 438 kts 346°
2026-04-22 12:09 49.74989 8.66851 21192 ft 437 kts 345°
2026-04-22 12:10 49.77818 8.65121 20929 ft 437 kts 338°
2026-04-22 12:10 49.80545 8.63184 20683 ft 436 kts 338°
2026-04-22 12:10 49.83307 8.61218 20425 ft 435 kts 338°
2026-04-22 12:10 49.86052 8.59256 20178 ft 433 kts 338°
2026-04-22 12:11 49.88789 8.57293 19925 ft 432 kts 338°
2026-04-22 12:11 49.91512 8.55336 19678 ft 431 kts 338°
2026-04-22 12:11 49.94230 8.53384 19436 ft 429 kts 338°
2026-04-22 12:11 49.96937 8.51438 19182 ft 428 kts 338°
2026-04-22 12:12 49.99630 8.49500 18944 ft 427 kts 338°
2026-04-22 12:12 50.02289 8.47584 18705 ft 425 kts 338°
2026-04-22 12:12 50.04976 8.45644 18436 ft 424 kts 338°
2026-04-22 12:12 50.07647 8.43713 18162 ft 423 kts 338°
2026-04-22 12:13 50.10322 8.41774 17893 ft 422 kts 338°
2026-04-22 12:13 50.12980 8.39839 17614 ft 420 kts 338°
2026-04-22 12:13 50.15629 8.37918 17342 ft 419 kts 338°
2026-04-22 12:13 50.18270 8.36006 17076 ft 418 kts 338°
2026-04-22 12:14 50.20874 8.34118 16814 ft 417 kts 338°
2026-04-22 12:14 50.23511 8.32200 16552 ft 415 kts 338°
2026-04-22 12:14 50.26131 8.30288 16335 ft 414 kts 338°
2026-04-22 12:14 50.28737 8.28378 16338 ft 414 kts 338°
2026-04-22 12:15 50.31321 8.26486 16340 ft 414 kts 338°
2026-04-22 12:15 50.33943 8.24569 16342 ft 414 kts 338°
2026-04-22 12:15 50.36565 8.22651 16342 ft 414 kts 338°
2026-04-22 12:15 50.39176 8.20733 16342 ft 415 kts 338°
2026-04-22 12:16 50.41759 8.18832 16344 ft 415 kts 338°
2026-04-22 12:16 50.44381 8.16902 16341 ft 415 kts 338°
2026-04-22 12:16 50.47005 8.14967 16337 ft 415 kts 338°
2026-04-22 12:16 50.49620 8.13029 16337 ft 415 kts 338°
2026-04-22 12:17 50.52205 8.11110 16337 ft 415 kts 338°
2026-04-22 12:17 50.54823 8.09177 16335 ft 415 kts 338°
2026-04-22 12:17 50.57441 8.07251 16329 ft 415 kts 338°
2026-04-22 12:17 50.60058 8.05320 16329 ft 415 kts 338°
2026-04-22 12:18 50.62682 8.03374 16326 ft 415 kts 338°
2026-04-22 12:18 50.65262 8.01454 16326 ft 415 kts 338°
2026-04-22 12:18 50.67879 7.99501 16327 ft 415 kts 338°
2026-04-22 12:18 50.70496 7.97547 16326 ft 415 kts 338°
2026-04-22 12:19 50.73115 7.95573 16331 ft 416 kts 336°
2026-04-22 12:19 50.75466 7.92973 16325 ft 423 kts 320°
2026-04-22 12:19 50.77317 7.89309 16337 ft 428 kts 306°
2026-04-22 12:19 50.78936 7.85346 16331 ft 429 kts 305°
2026-04-22 12:20 50.80546 7.81364 16331 ft 429 kts 305°
2026-04-22 12:20 50.81609 7.78725 16273 ft 430 kts 305°
2026-04-22 12:20 50.83210 7.74745 15555 ft 427 kts 305°
2026-04-22 12:20 50.85310 7.69526 14909 ft 421 kts 305°
2026-04-22 12:21 50.86883 7.65627 14420 ft 418 kts 305°
2026-04-22 12:21 50.87923 7.63056 14111 ft 416 kts 305°
2026-04-22 12:21 50.89992 7.57944 13443 ft 413 kts 305°
2026-04-22 12:21 50.91021 7.55394 13120 ft 412 kts 304°
2026-04-22 12:22 50.92560 7.51570 12629 ft 410 kts 304°
2026-04-22 12:22 50.94090 7.47763 12142 ft 407 kts 304°
2026-04-22 12:22 50.95607 7.43979 11645 ft 405 kts 304°
2026-04-22 12:22 50.97117 7.40203 11146 ft 403 kts 304°
2026-04-22 12:23 50.98610 7.36458 10647 ft 401 kts 304°
2026-04-22 12:23 51.00097 7.32724 10127 ft 398 kts 304°
2026-04-22 12:23 51.01559 7.29048 9576 ft 396 kts 304°
2026-04-22 12:23 51.03026 7.25359 9026 ft 393 kts 304°
2026-04-22 12:24 51.04476 7.21702 8481 ft 390 kts 304°
2026-04-22 12:24 51.05904 7.18101 7938 ft 387 kts 304°
2026-04-22 12:24 51.07212 7.14381 7366 ft 385 kts 292°
2026-04-22 12:24 51.07757 7.10260 6785 ft 378 kts 271°
2026-04-22 12:25 51.07655 7.06119 6196 ft 369 kts 266°
2026-04-22 12:25 51.07505 7.02120 5940 ft 352 kts 266°
2026-04-22 12:25 51.07362 6.98363 5851 ft 325 kts 266°
2026-04-22 12:25 51.07346 6.97968 5828 ft 322 kts 266°
2026-04-22 12:29 51.07296 6.96897 5735 ft 313 kts 264°
2026-04-22 12:29 51.06787 6.93691 5496 ft 288 kts 239°
2026-04-22 12:29 51.05470 6.91595 5234 ft 262 kts 205°
2026-04-22 12:30 51.02228 6.92214 4217 ft 239 kts 139°
2026-04-22 12:30 51.01007 6.93955 3780 ft 233 kts 134°
2026-04-22 12:30 50.99849 6.95699 3461 ft 228 kts 134°
2026-04-22 12:31 50.98699 6.97393 3133 ft 221 kts 135°
2026-04-22 12:31 50.97594 6.99009 2845 ft 214 kts 135°
2026-04-22 12:31 50.96504 7.00598 2549 ft 209 kts 135°
2026-04-22 12:31 50.95457 7.02123 2262 ft 201 kts 135°
2026-04-22 12:32 50.94460 7.03574 2045 ft 189 kts 135°
2026-04-22 12:32 50.92661 7.06194 1545 ft 165 kts 133°
2026-04-22 12:32 50.91818 7.07404 1286 ft 160 kts 136°
2026-04-22 12:33 50.91033 7.08506 1110 ft 142 kts 135°
2026-04-22 12:33 50.90327 7.09536 888 ft 134 kts 132°
2026-04-22 12:33 50.89660 7.10538 717 ft 131 kts 134°
2026-04-22 12:33 50.88993 7.11509 540 ft 130 kts 131°
2026-04-22 12:34 50.88326 7.12495 373 ft 132 kts 134°
2026-04-22 12:34 50.87660 7.13470 249 ft 125 kts 134°
2026-04-22 12:34 50.87103 7.14283 251 ft 83 kts 139°
2026-04-22 12:34 50.86865 7.14595 262 ft 13 kts 175°
2026-04-22 12:35 50.86852 7.14569 262 ft 4 kts 283°
2026-04-22 12:35 50.86878 7.14422 260 ft 20 kts 279°
2026-04-22 12:35 50.86903 7.14193 255 ft 23 kts 279°
2026-04-22 12:35 50.86933 7.13923 249 ft 28 kts 289°
2026-04-22 12:36 50.87082 7.13695 241 ft 32 kts 318°
2026-04-22 12:36 50.87260 7.13446 234 ft 36 kts 320°
2026-04-22 12:36 50.87450 7.13175 232 ft 37 kts 317°
2026-04-22 12:36 50.87597 7.12952 232 ft 24 kts 315°
2026-04-22 12:37 50.87719 7.12768 232 ft 24 kts 317°
2026-04-22 12:37 50.87809 7.12642 232 ft 14 kts 324°
2026-04-22 12:37 50.87872 7.12612 232 ft 8 kts 354°
2026-04-22 12:37 50.87895 7.12557 235 ft 6 kts 289°
2026-04-22 12:38 50.87904 7.12511 232 ft 1 kts 288°
2026-04-22 12:38 50.87907 7.12499 232 ft 1 kts 288°
2026-04-22 12:38 50.87908 7.12494 232 ft 0 kts 288°